Location: Bouchavesnes-Bergen
(49.9859°N, 2.9203°E)
Time: 00:05:02
(UTC+00:00)

CENTAUR R/B - Pass Details

Date: 09 March 2021
Orbit: 742 x 1446 km, 63.4° (Epoch: 31 March)

Event Time Altitude Azimuth Distance (km) Brightness Sun altitude
Rises 05:32:48 0° 312° (NW) 4,237 5.4 -7.6°
Reaches altitude 10° 05:36:06 10° 300° (WNW) 3,359 4.8 -7.0°
Maximum altitude 05:42:25 25° 251° (WSW) 2,529 4.1 -6.0°
Drops below altitude 10° 05:49:06 10° 201° (SSW) 3,549 5.2 -4.9°
Sets 05:52:43 0° 189° (S) 4,527 5.9 -4.4°
